| time (UTC) | temp F | wind direction | speed knots | gust knots | rain 1hr in | rain 24hr in | rain mn in | humidity % | barometer mb |
| 20260506211708 | 70 | 175 | 1.7 | 7.8 | 0.00 | 0.00 | 0.00 | 34 | 1011.8 |
| 20260506205709 | 69 | 193 | 1.7 | 6.1 | 0.00 | 0.00 | 0.00 | 33 | 1012.0 |
| 20260506205209 | 69 | 244 | 1.7 | 7.0 | 0.00 | 0.00 | 0.00 | 36 | 1012.0 |
| 20260506204708 | 68 | 209 | 2.6 | 9.6 | 0.00 | 0.00 | 0.00 | 35 | 1012.2 |
| 20260506204208 | 67 | 236 | 2.6 | 9.6 | 0.00 | 0.00 | 0.00 | 35 | 1012.4 |
| 20260506203708 | 68 | 200 | 1.7 | 6.1 | 0.00 | 0.00 | 0.00 | 33 | 1012.4 |
| 20260506203204 | 68 | 202 | 1.7 | 6.1 | 0.00 | 0.00 | 0.00 | 35 | 1012.5 |
| 20260506202703 | 68 | 156 | 1.7 | 7.0 | 0.00 | 0.00 | 0.00 | 35 | 1012.6 |
| 20260506202205 | 68 | 220 | 1.7 | 7.0 | 0.00 | 0.00 | 0.00 | 35 | 1012.6 |
| 20260506201704 | 68 | 161 | 1.7 | 7.0 | 0.00 | 0.00 | 0.00 | 35 | 1012.6 |
| 20260506200704 | 67 | 325 | 1.7 | 5.2 | 0.00 | 0.00 | 0.00 | 34 | 1012.8 |
| 20260506200205 | 68 | 286 | 1.7 | 5.2 | 0.00 | 0.00 | 0.00 | 35 | 1012.8 |
| 20260506195705 | 68 | 202 | 1.7 | 5.2 | 0.00 | 0.00 | 0.00 | 34 | 1012.9 |
| 20260506195205 | 68 | 200 | 0.9 | 5.2 | 0.00 | 0.00 | 0.00 | 33 | 1013.0 |
| 20260506194704 | 67 | 171 | 0.9 | 3.5 | 0.00 | 0.00 | 0.00 | 34 | 1013.1 |
| 20260506194204 | 66 | 282 | 1.7 | 3.5 | 0.00 | 0.00 | 0.00 | 34 | 1013.1 |
| 20260506192705 | 67 | 67 | 0.9 | 4.3 | 0.00 | 0.00 | 0.00 | 32 | 1013.4 |
| 20260506190703 | 64 | 238 | 1.7 | 6.1 | 0.00 | 0.00 | 0.00 | 36 | 1013.7 |
| 20260506190201 | 65 | 223 | 1.7 | 6.1 | 0.00 | 0.00 | 0.00 | 36 | 1013.8 |
| 20260506185702 | 64 | 232 | 1.7 | 6.1 | 0.00 | 0.00 | 0.00 | 37 | 1013.8 |
| 20260506185202 | 63 | 225 | 1.7 | 6.1 | 0.00 | 0.00 | 0.00 | 36 | 1013.9 |
| 20260506184702 | 63 | 215 | 1.7 | 4.3 | 0.00 | 0.00 | 0.00 | 35 | 1014.2 |
| 20260506184201 | 64 | 161 | 0.9 | 4.3 | 0.00 | 0.00 | 0.00 | 36 | 1014.2 |
| 20260506183202 | 63 | 239 | 1.7 | 6.1 | 0.00 | 0.00 | 0.00 | 36 | 1014.5 |
| 20260506182704 | 63 | 154 | 0.9 | 5.2 | 0.00 | 0.00 | 0.00 | 37 | 1014.5 |
| 20260506182205 | 62 | 326 | 0.9 | 3.5 | 0.00 | 0.00 | 0.00 | 38 | 1014.6 |
| 20260506181703 | 61 | 196 | 0.9 | 3.5 | 0.00 | 0.00 | 0.00 | 40 | 1014.8 |
| 20260506181203 | 61 | 106 | 0.9 | 3.5 | 0.00 | 0.00 | 0.00 | 36 | 1014.9 |
| 20260506180703 | 62 | 263 | 1.7 | 3.5 | 0.00 | 0.00 | 0.00 | 38 | 1014.9 |
| 20260506180204 | 62 | 336 | 0.9 | 4.3 | 0.00 | 0.00 | 0.00 | 39 | 1014.8 |
| 20260506175703 | 60 | 284 | 1.7 | 4.3 | 0.00 | 0.00 | 0.00 | 37 | 1015.0 |
| 20260506175204 | 60 | 168 | 1.7 | 5.2 | 0.00 | 0.00 | 0.00 | 36 | 1015.0 |
| 20260506174705 | 60 | 292 | 0.9 | 5.2 | 0.00 | 0.00 | 0.00 | 37 | 1015.1 |
| 20260506174203 | 60 | 79 | 0.9 | 3.5 | 0.00 | 0.00 | 0.00 | 38 | 1015.2 |
| 20260506173703 | 59 | 213 | 0.9 | 3.5 | 0.00 | 0.00 | 0.00 | 39 | 1015.2 |
| 20260506172706 | 59 | 83 | 1.7 | 6.1 | 0.00 | 0.00 | 0.00 | 38 | 1015.2 |
| 20260506172204 | 58 | 68 | 1.7 | 6.1 | 0.00 | 0.00 | 0.00 | 41 | 1015.3 |
| 20260506171203 | 59 | 232 | 0.9 | 3.5 | 0.00 | 0.00 | 0.00 | 41 | 1015.4 |
| 20260506170201 | 58 | 223 | 0.9 | 7.0 | 0.00 | 0.00 | 0.00 | 39 | 1015.4 |
| 20260506165149 | 57 | 238 | 0.9 | 4.3 | 0.00 | 0.00 | 0.00 | 39 | 1015.5 |
| 20260506164643 | 57 | 229 | 0.9 | 2.6 | 0.00 | 0.00 | 0.00 | 39 | 1015.5 |
| 20260506164135 | 56 | 235 | 0.9 | 3.5 | 0.00 | 0.00 | 0.00 | 42 | 1015.7 |
| 20260506163634 | 55 | 241 | 0.9 | 3.5 | 0.00 | 0.00 | 0.00 | 44 | 1015.7 |
| 20260506163131 | 54 | 207 | 0.9 | 2.6 | 0.00 | 0.00 | 0.00 | 49 | 1015.7 |
| 20260506162634 | 53 | 101 | 0.9 | 2.6 | 0.00 | 0.00 | 0.00 | 50 | 1015.9 |
| 20260506162131 | 52 | 28 | 0.9 | 2.6 | 0.00 | 0.00 | 0.00 | 52 | 1015.9 |
| 20260506161131 | 50 | 83 | 1.7 | 7.0 | 0.00 | 0.00 | 0.00 | 52 | 1016.1 |
| 20260506160635 | 50 | 57 | 2.6 | 7.0 | 0.00 | 0.00 | 0.00 | 53 | 1016.2 |
| 20260506160131 | 49 | 67 | 1.7 | 3.5 | 0.00 | 0.00 | 0.00 | 52 | 1016.3 |
| 20260506155632 | 50 | 68 | 1.7 | 3.5 | 0.00 | 0.00 | 0.00 | 52 | 1016.3 |
| 20260506155133 | 49 | 67 | 1.7 | 2.6 | 0.00 | 0.00 | 0.00 | 53 | 1016.4 |
| 20260506154635 | 48 | 59 | 1.7 | 2.6 | 0.00 | 0.00 | 0.00 | 54 | 1016.3 |
| 20260506154133 | 48 | 78 | 1.7 | 3.5 | 0.00 | 0.00 | 0.00 | 54 | 1016.4 |
| 20260506153631 | 47 | 96 | 1.7 | 3.5 | 0.00 | 0.00 | 0.00 | 56 | 1016.4 |
| 20260506153134 | 47 | 28 | 0.9 | 3.5 | 0.00 | 0.00 | 0.00 | 58 | 1016.5 |
| 20260506152630 | 46 | 71 | 1.7 | 3.5 | 0.00 | 0.00 | 0.00 | 59 | 1016.4 |
| 20260506152124 | 45 | 72 | 1.7 | 3.5 | 0.00 | 0.00 | 0.00 | 62 | 1016.5 |
| 20260506151622 | 45 | 42 | 1.7 | 3.5 | 0.00 | 0.00 | 0.00 | 63 | 1016.6 |
| 20260506151121 | 44 | 334 | 0.9 | 3.5 | 0.00 | 0.00 | 0.00 | 61 | 1016.6 |
| 20260506150620 | 44 | 34 | 0.9 | 3.5 | 0.00 | 0.00 | 0.00 | 61 | 1016.6 |
| 20260506150117 | 43 | 326 | 0.9 | 2.6 | 0.00 | 0.00 | 0.00 | 64 | 1016.7 |
| 20260506145616 | 42 | 298 | 0.9 | 2.6 | 0.00 | 0.00 | 0.00 | 66 | 1016.7 |
| 20260506145114 | 42 | 302 | 0.0 | 1.7 | 0.00 | 0.00 | 0.00 | 66 | 1016.9 |
| 20260506144613 | 41 | 344 | 0.0 | 1.7 | 0.00 | 0.00 | 0.00 | 70 | 1016.8 |
| 20260506144115 | 40 | 326 | 0.0 | 1.7 | 0.00 | 0.00 | 0.00 | 69 | 1016.9 |
| 20260506143111 | 39 | 300 | 0.0 | 1.7 | 0.00 | 0.00 | 0.00 | 72 | 1016.9 |
| 20260506142611 | 39 | 309 | 0.0 | 0.9 | 0.00 | 0.00 | 0.00 | 74 | 1017.1 |
| 20260506142111 | 38 | 309 | 0.0 | 0.9 | 0.00 | 0.00 | 0.00 | 74 | 1017.1 |
| 20260506141609 | 37 | 285 | 0.0 | 0.9 | 0.00 | 0.00 | 0.00 | 78 | 1017.1 |
| 20260506140608 | 36 | 285 | 0.0 | 0.9 | 0.00 | 0.00 | 0.00 | 80 | 1017.1 |
| 20260506140109 | 35 | 284 | 0.0 | 0.9 | 0.00 | 0.00 | 0.00 | 80 | 1016.9 |
| 20260506135607 | 35 | 277 | 0.0 | 0.9 | 0.00 | 0.00 | 0.00 | 82 | 1016.9 |
| 20260506135105 | 35 | 277 | 0.0 | 1.7 | 0.00 | 0.00 | 0.00 | 82 | 1017.1 |
| 20260506134602 | 34 | 317 | 0.0 | 1.7 | 0.00 | 0.00 | 0.00 | 83 | 1016.9 |
| 20260506134101 | 34 | 322 | 0.0 | 1.7 | 0.00 | 0.00 | 0.00 | 82 | 1016.9 |
| 20260506133555 | 33 | 232 | 0.0 | 0.0 | 0.00 | 0.00 | 0.00 | 84 | 1016.9 |
| 20260506133050 | 32 | 232 | 0.0 | 0.0 | 0.00 | 0.00 | 0.00 | 85 | 1017.1 |
| 20260506132544 | 32 | 232 | 0.0 | 0.0 | 0.00 | 0.00 | 0.00 | 85 | 1017.1 |
| 20260506132038 | 32 | 232 | 0.0 | 0.0 | 0.00 | 0.00 | 0.00 | 85 | 1016.9 |
| 20260506131531 | 33 | 221 | 0.0 | 0.0 | 0.00 | 0.00 | 0.00 | 84 | 1017.1 |
| 20260506131030 | 33 | 221 | 0.0 | 0.0 | 0.00 | 0.00 | 0.00 | 83 | 1016.9 |
| 20260506130530 | 33 | 222 | 0.0 | 0.0 | 0.00 | 0.00 | 0.00 | 83 | 1016.9 |
| 20260506130029 | 33 | 222 | 0.0 | 0.0 | 0.00 | 0.00 | 0.00 | 83 | 1016.9 |
| 20260506125529 | 33 | 221 | 0.0 | 0.0 | 0.00 | 0.00 | 0.00 | 84 | 1016.9 |
| 20260506125029 | 32 | 221 | 0.0 | 0.9 | 0.00 | 0.00 | 0.00 | 85 | 1016.9 |
| 20260506124530 | 32 | 221 | 0.0 | 0.0 | 0.00 | 0.00 | 0.00 | 84 | 1016.9 |
| 20260506124030 | 33 | 217 | 0.0 | 0.9 | 0.00 | 0.00 | 0.00 | 84 | 1016.9 |
| 20260506123529 | 32 | 209 | 0.0 | 0.9 | 0.00 | 0.00 | 0.00 | 84 | 1016.9 |
| 20260506123030 | 32 | 244 | 0.0 | 0.9 | 0.00 | 0.00 | 0.00 | 84 | 1016.9 |
| 20260506122529 | 32 | 244 | 0.0 | 0.9 | 0.00 | 0.00 | 0.00 | 83 | 1016.9 |
| 20260506121530 | 33 | 245 | 0.0 | 0.9 | 0.00 | 0.00 | 0.00 | 82 | 1016.9 |
| 20260506121029 | 33 | 245 | 0.0 | 0.9 | 0.00 | 0.00 | 0.00 | 82 | 1016.9 |
| 20260506120531 | 33 | 238 | 0.0 | 0.9 | 0.00 | 0.00 | 0.00 | 81 | 1017.1 |
| 20260506120029 | 34 | 242 | 0.0 | 0.9 | 0.00 | 0.00 | 0.00 | 80 | 1017.1 |
| 20260506115032 | 34 | 319 | 0.0 | 1.7 | 0.00 | 0.00 | 0.00 | 80 | 1016.9 |
| 20260506114536 | 34 | 319 | 0.0 | 1.7 | 0.00 | 0.00 | 0.00 | 80 | 1016.9 |
| 20260506114033 | 34 | 254 | 0.0 | 0.9 | 0.00 | 0.00 | 0.00 | 79 | 1016.9 |
| 20260506113530 | 34 | 329 | 0.0 | 0.9 | 0.00 | 0.00 | 0.00 | 79 | 1016.9 |
| 20260506113030 | 34 | 9 | 0.0 | 0.9 | 0.00 | 0.00 | 0.00 | 79 | 1017.1 |
| 20260506112529 | 35 | 67 | 0.0 | 0.9 | 0.00 | 0.00 | 0.00 | 77 | 1017.1 |
| 20260506112028 | 35 | 266 | 0.0 | 0.9 | 0.00 | 0.00 | 0.00 | 77 | 1017.1 |
| 20260506111531 | 35 | 333 | 0.0 | 0.9 | 0.00 | 0.00 | 0.00 | 78 | 1016.9 |
| 20260506111030 | 35 | 328 | 0.0 | 0.9 | 0.00 | 0.00 | 0.00 | 76 | 1016.9 |
| 20260506110030 | 35 | 302 | 0.0 | 0.9 | 0.00 | 0.00 | 0.00 | 77 | 1016.9 |
| 20260506105529 | 36 | 279 | 0.0 | 0.9 | 0.00 | 0.00 | 0.00 | 77 | 1017.1 |
| 20260506105030 | 36 | 279 | 0.0 | 0.9 | 0.00 | 0.00 | 0.00 | 76 | 1016.9 |
| 20260506104033 | 36 | 255 | 0.0 | 0.9 | 0.00 | 0.00 | 0.00 | 75 | 1016.9 |
| 20260506103532 | 36 | 267 | 0.0 | 0.9 | 0.00 | 0.00 | 0.00 | 76 | 1016.8 |
| 20260506103033 | 37 | 270 | 0.0 | 0.9 | 0.00 | 0.00 | 0.00 | 74 | 1016.8 |
| 20260506102532 | 37 | 254 | 0.0 | 0.9 | 0.00 | 0.00 | 0.00 | 73 | 1016.8 |
| 20260506102034 | 37 | 346 | 0.0 | 0.9 | 0.00 | 0.00 | 0.00 | 74 | 1016.8 |
| 20260506101537 | 37 | 298 | 0.0 | 1.7 | 0.00 | 0.00 | 0.00 | 73 | 1016.9 |
| 20260506101032 | 37 | 302 | 0.9 | 2.6 | 0.00 | 0.00 | 0.00 | 74 | 1016.8 |
| 20260506100529 | 37 | 330 | 0.9 | 2.6 | 0.00 | 0.00 | 0.00 | 73 | 1016.9 |
| 20260506100029 | 37 | 44 | 0.9 | 1.7 | 0.00 | 0.00 | 0.00 | 75 | 1016.7 |
| 20260506095529 | 37 | 329 | 0.9 | 3.5 | 0.00 | 0.00 | 0.00 | 74 | 1016.9 |
| 20260506094529 | 37 | 100 | 0.9 | 1.7 | 0.00 | 0.00 | 0.00 | 74 | 1016.8 |
| 20260506094030 | 37 | 329 | 0.0 | 1.7 | 0.00 | 0.00 | 0.00 | 75 | 1016.9 |
| 20260506093529 | 37 | 32 | 0.0 | 1.7 | 0.00 | 0.00 | 0.00 | 75 | 1016.9 |
| 20260506093029 | 37 | 295 | 0.0 | 0.9 | 0.00 | 0.00 | 0.00 | 79 | 1016.9 |
| 20260506092529 | 37 | 23 | 0.0 | 0.9 | 0.00 | 0.00 | 0.00 | 79 | 1017.1 |
| 20260506091531 | 37 | 46 | 0.0 | 1.7 | 0.00 | 0.00 | 0.00 | 78 | 1016.9 |
| 20260506091029 | 37 | 48 | 0.0 | 1.7 | 0.00 | 0.00 | 0.00 | 76 | 1017.1 |
| 20260506090532 | 36 | 42 | 0.0 | 1.7 | 0.00 | 0.00 | 0.00 | 75 | 1017.1 |
| 20260506090033 | 36 | 232 | 0.0 | 1.7 | 0.00 | 0.00 | 0.00 | 75 | 1017.1 |
| 20260506085532 | 36 | 304 | 0.0 | 1.7 | 0.00 | 0.00 | 0.00 | 73 | 1017.1 |
| 20260506085023 | 36 | 223 | 0.0 | 0.9 | 0.00 | 0.00 | 0.00 | 72 | 1017.1 |
| 20260506084014 | 37 | 246 | 0.0 | 0.0 | 0.00 | 0.00 | 0.00 | 69 | 1017.1 |
| 20260506083511 | 37 | 246 | 0.0 | 0.9 | 0.00 | 0.00 | 0.00 | 70 | 1016.9 |
| 20260506083012 | 37 | 246 | 0.0 | 0.9 | 0.00 | 0.00 | 0.00 | 71 | 1017.1 |
| 20260506082510 | 37 | 241 | 0.0 | 1.7 | 0.00 | 0.00 | 0.00 | 72 | 1017.1 |
| 20260506081509 | 37 | 182 | 0.0 | 0.9 | 0.00 | 0.00 | 0.00 | 72 | 1017.2 |
| 20260506081009 | 37 | 182 | 0.0 | 1.7 | 0.00 | 0.00 | 0.00 | 72 | 1017.1 |
| 20260506080509 | 37 | 213 | 0.0 | 1.7 | 0.00 | 0.00 | 0.00 | 75 | 1017.2 |
| 20260506073503 | 37 | 253 | 0.9 | 1.7 | 0.00 | 0.00 | 0.00 | 75 | 1017.3 |
| 20260506073004 | 39 | 229 | 0.0 | 1.7 | 0.00 | 0.00 | 0.00 | 72 | 1017.2 |
| 20260506071502 | 40 | 93 | 0.0 | 0.9 | 0.00 | 0.00 | 0.00 | 72 | 1017.3 |
| 20260506071001 | 40 | 93 | 0.0 | 1.7 | 0.00 | 0.00 | 0.00 | 71 | 1017.3 |
| 20260506062431 | 42 | 165 | 0.0 | 0.0 | 0.00 | 0.00 | 0.00 | 62 | 1017.1 |
| 20260506061930 | 42 | 165 | 0.0 | 0.0 | 0.00 | 0.00 | 0.00 | 62 | 1016.9 |
| 20260506061431 | 42 | 165 | 0.0 | 0.0 | 0.00 | 0.00 | 0.00 | 65 | 1017.1 |
| 20260506060929 | 43 | 165 | 0.0 | 0.9 | 0.00 | 0.00 | 0.00 | 68 | 1017.1 |
| 20260506060430 | 43 | 165 | 0.0 | 0.9 | 0.00 | 0.00 | 0.00 | 61 | 1017.1 |
| 20260506050916 | 46 | 327 | 0.0 | 0.9 | 0.00 | 0.00 | 0.00 | 50 | 1016.9 |
| 20260506050409 | 47 | 327 | 0.0 | 0.9 | 0.00 | 0.00 | 0.00 | 50 | 1016.9 |
| 20260506044405 | 49 | 219 | 0.9 | 3.5 | 0.00 | 0.00 | 0.00 | 44 | 1016.7 |
| 20260506043901 | 49 | 218 | 0.9 | 2.6 | 0.00 | 0.00 | 0.00 | 44 | 1016.8 |
| 20260506042902 | 51 | 52 | 2.6 | 8.7 | 0.00 | 0.00 | 0.00 | 43 | 1016.6 |
| 20260506042401 | 51 | 69 | 4.3 | 10.4 | 0.00 | 0.00 | 0.00 | 44 | 1016.6 |
| 20260506041901 | 51 | 53 | 5.2 | 12.2 | 0.00 | 0.00 | 0.00 | 43 | 1016.6 |
| 20260506041402 | 52 | 70 | 5.2 | 12.2 | 0.00 | 0.00 | 0.00 | 42 | 1016.5 |
| 20260506040401 | 52 | 55 | 6.1 | 11.3 | 0.00 | 0.00 | 0.00 | 44 | 1016.4 |
| 20260506035901 | 51 | 53 | 5.2 | 7.8 | 0.00 | 0.00 | 0.00 | 41 | 1016.5 |
| 20260506035401 | 51 | 93 | 2.6 | 7.8 | 0.00 | 0.00 | 0.00 | 44 | 1016.5 |
| 20260506034905 | 51 | 74 | 0.9 | 7.0 | 0.00 | 0.00 | 0.00 | 47 | 1016.5 |
| 20260506034402 | 51 | 18 | 1.7 | 7.0 | 0.00 | 0.00 | 0.00 | 43 | 1016.4 |
| 20260506033901 | 52 | 59 | 4.3 | 11.3 | 0.00 | 0.00 | 0.00 | 43 | 1016.4 |
| 20260506033402 | 52 | 75 | 4.3 | 11.3 | 0.00 | 0.00 | 0.00 | 41 | 1016.4 |
| 20260506031847 | 52 | 300 | 8.7 | 14.8 | 0.00 | 0.00 | 0.00 | 40 | 1016.2 |
| 20260506031340 | 53 | 88 | 10.4 | 14.8 | 0.00 | 0.00 | 0.00 | 40 | 1016.2 |
| 20260506030834 | 53 | 69 | 8.7 | 14.8 | 0.00 | 0.00 | 0.00 | 42 | 1016.2 |
| 20260506030334 | 53 | 73 | 8.7 | 15.6 | 0.00 | 0.00 | 0.00 | 42 | 1016.2 |
| 20260506025834 | 53 | 62 | 9.6 | 15.6 | 0.00 | 0.00 | 0.00 | 38 | 1016.1 |
| 20260506025334 | 53 | 81 | 10.4 | 17.4 | 0.00 | 0.00 | 0.00 | 40 | 1016.0 |
| 20260506024834 | 53 | 83 | 10.4 | 17.4 | 0.00 | 0.00 | 0.00 | 38 | 1016.0 |
| 20260506024334 | 53 | 74 | 9.6 | 13.0 | 0.00 | 0.00 | 0.00 | 38 | 1016.0 |
| 20260506023834 | 53 | 69 | 7.8 | 12.2 | 0.00 | 0.00 | 0.00 | 37 | 1016.0 |
| 20260506023334 | 53 | 57 | 7.8 | 12.2 | 0.00 | 0.00 | 0.00 | 41 | 1016.0 |
| 20260506022835 | 53 | 97 | 8.7 | 15.6 | 0.00 | 0.00 | 0.00 | 37 | 1016.0 |
| 20260506022333 | 53 | 92 | 8.7 | 15.6 | 0.00 | 0.00 | 0.00 | 37 | 1016.0 |
| 20260506021835 | 53 | 73 | 8.7 | 15.6 | 0.00 | 0.00 | 0.00 | 38 | 1015.7 |
| 20260506021334 | 53 | 28 | 8.7 | 17.4 | 0.00 | 0.00 | 0.00 | 38 | 1015.9 |
| 20260506020834 | 53 | 96 | 9.6 | 17.4 | 0.00 | 0.00 | 0.00 | 38 | 1015.9 |
| 20260506020334 | 53 | 14 | 9.6 | 14.8 | 0.00 | 0.00 | 0.00 | 37 | 1015.7 |
| 20260506015834 | 54 | 69 | 10.4 | 17.4 | 0.00 | 0.00 | 0.00 | 38 | 1015.7 |
| 20260506015337 | 54 | 91 | 9.6 | 17.4 | 0.00 | 0.00 | 0.00 | 38 | 1015.6 |
| 20260506014836 | 54 | 74 | 7.8 | 14.8 | 0.00 | 0.00 | 0.00 | 38 | 1015.6 |
| 20260506014336 | 54 | 59 | 8.7 | 13.9 | 0.00 | 0.00 | 0.00 | 39 | 1015.6 |
| 20260506013835 | 54 | 76 | 8.7 | 13.9 | 0.00 | 0.00 | 0.00 | 38 | 1015.5 |
| 20260506013335 | 54 | 84 | 9.6 | 16.5 | 0.00 | 0.00 | 0.00 | 38 | 1015.5 |
| 20260506012834 | 54 | 336 | 10.4 | 17.4 | 0.00 | 0.00 | 0.00 | 37 | 1015.6 |
| 20260506011833 | 54 | 101 | 10.4 | 17.4 | 0.00 | 0.00 | 0.00 | 37 | 1015.6 |
| 20260506011334 | 54 | 86 | 11.3 | 18.2 | 0.00 | 0.00 | 0.00 | 38 | 1015.6 |
| 20260506010834 | 54 | 88 | 12.2 | 18.2 | 0.00 | 0.00 | 0.00 | 38 | 1015.6 |
| 20260506010334 | 54 | 67 | 13.0 | 20.0 | 0.00 | 0.00 | 0.00 | 36 | 1015.6 |
| 20260506005834 | 54 | 17 | 13.9 | 20.9 | 0.00 | 0.00 | 0.00 | 36 | 1015.6 |
| 20260506005335 | 54 | 276 | 14.8 | 22.6 | 0.00 | 0.00 | 0.00 | 37 | 1015.9 |
| 20260506004834 | 54 | 336 | 14.8 | 22.6 | 0.00 | 0.00 | 0.00 | 36 | 1015.7 |
| 20260506004335 | 54 | 79 | 13.9 | 20.0 | 0.00 | 0.00 | 0.00 | 35 | 1015.6 |
| 20260506003833 | 54 | 80 | 13.0 | 20.9 | 0.00 | 0.00 | 0.00 | 36 | 1015.7 |
| 20260506002335 | 54 | 86 | 12.2 | 20.9 | 0.00 | 0.00 | 0.00 | 35 | 1015.9 |
| 20260506001833 | 54 | 33 | 13.0 | 20.0 | 0.00 | 0.00 | 0.00 | 39 | 1015.7 |
| 20260506001334 | 54 | 91 | 13.9 | 20.9 | 0.00 | 0.00 | 0.00 | 34 | 1015.9 |
| 20260506000833 | 54 | 79 | 13.9 | 20.9 | 0.00 | 0.00 | 0.00 | 35 | 1015.4 |
| 20260506000335 | 54 | 94 | 13.0 | 19.1 | 0.00 | 0.00 | 0.00 | 38 | 1015.7 |
| 20260505235336 | 55 | 71 | 12.2 | 20.0 | 0.00 | 0.00 | 0.00 | 36 | 1015.7 |
| 20260505234838 | 54 | 74 | 13.0 | 20.9 | 0.00 | 0.00 | 0.00 | 36 | 1015.6 |
| 20260505234332 | 54 | 66 | 14.8 | 20.9 | 0.00 | 0.00 | 0.00 | 38 | 1015.5 |
| 20260505233831 | 54 | 81 | 16.5 | 28.7 | 0.00 | 0.00 | 0.00 | 36 | 1016.0 |
| 20260505233332 | 54 | 49 | 16.5 | 28.7 | 0.00 | 0.00 | 0.00 | 36 | 1015.9 |
| 20260505232830 | 55 | 28 | 13.9 | 24.3 | 0.00 | 0.00 | 0.00 | 35 | 1016.0 |
| 20260505232330 | 55 | 77 | 13.9 | 24.3 | 0.00 | 0.00 | 0.00 | 37 | 1015.7 |
| 20260505231331 | 54 | 74 | 19.1 | 26.1 | 0.00 | 0.00 | 0.00 | 36 | 1015.6 |
| 20260505230831 | 54 | 68 | 20.0 | 25.2 | 0.00 | 0.00 | 0.00 | 35 | 1016.1 |
| 20260505230331 | 54 | 69 | 18.2 | 25.2 | 0.00 | 0.00 | 0.00 | 36 | 1015.9 |
| 20260505225832 | 54 | 96 | 14.8 | 25.2 | 0.00 | 0.00 | 0.00 | 36 | 1016.6 |
| 20260505225331 | 55 | 65 | 12.2 | 20.9 | 0.00 | 0.00 | 0.00 | 35 | 1015.9 |
| 20260505224832 | 55 | 78 | 11.3 | 20.9 | 0.00 | 0.00 | 0.00 | 35 | 1015.9 |
| 20260505224331 | 55 | 90 | 11.3 | 20.0 | 0.00 | 0.00 | 0.00 | 36 | 1015.9 |
| 20260505223330 | 55 | 47 | 14.8 | 24.3 | 0.00 | 0.00 | 0.00 | 34 | 1015.9 |
| 20260505222330 | 56 | 126 | 7.8 | 20.0 | 0.00 | 0.00 | 0.00 | 32 | 1016.3 |
| 20260505221330 | 59 | 168 | 3.5 | 10.4 | 0.00 | 0.00 | 0.00 | 31 | 1015.6 |
| 20260505220329 | 59 | 309 | 2.6 | 9.6 | 0.00 | 0.00 | 0.00 | 30 | 1015.9 |
| 20260505215830 | 60 | 11 | 2.6 | 10.4 | 0.00 | 0.00 | 0.00 | 31 | 1015.7 |
| 20260505215330 | 59 | 117 | 4.3 | 11.3 | 0.00 | 0.00 | 0.00 | 31 | 1016.1 |
| 20260505214830 | 59 | 84 | 4.3 | 12.2 | 0.00 | 0.00 | 0.00 | 30 | 1015.9 |
| 20260505214331 | 59 | 34 | 7.0 | 15.6 | 0.00 | 0.00 | 0.00 | 30 | 1016.0 |
| 20260505213830 | 58 | 304 | 7.0 | 15.6 | 0.00 | 0.00 | 0.00 | 32 | 1016.2 |
| 20260505213330 | 59 | 76 | 5.2 | 11.3 | 0.00 | 0.00 | 0.00 | 30 | 1016.0 |
| 20260505212831 | 59 | 84 | 3.5 | 11.3 | 0.00 | 0.00 | 0.00 | 27 | 1015.9 |
| 20260505212330 | 59 | 59 | 3.5 | 8.7 | 0.00 | 0.00 | 0.00 | 30 | 1016.0 |